Flag for Germany Weather past 2 weeks in Aalen, Baden-Württemberg, Germany

Now
58 °F

Overcast.


Feels Like: 58 °F
Forecast: 54 / 65 °F
Wind: 5 mph from West

Location: Stoetten

Current Time: Sep 20, 2014 at 8:47:21 AM

Latest Report: Sep 20, 2014 at 8:00 AM


Visibility: 28 mi

Pressure: 29.98 "Hg

Humidity: 92%

Dew point: 56 °F

Location of AalenLocation

Historic Weather in Aalen — Graph

°F

Aalen temperature yesterday

Maximum temperature yesterday: 69 °F (at 2:00 PM)
Minimum temperature yesterday: 56 °F (at 7:00 AM)
Average temperature yesterday: 62 °F

Past Weeks' High & Low Weather Summary

 TemperatureHumidityPressure
High71 °F (Sep 7, 3:00 PM)100% (Sep 11, 9:00 AM)30.16 "Hg (Sep 11, 9:00 AM)
Low47 °F (Sep 11, 7:00 AM)51% (Sep 7, 3:00 PM)29.84 "Hg (Sep 18, 4:00 PM)
Average58 °F87%29.98 "Hg
* Reported Sep 5 7:00 AM — Sep 20 7:00 AM, Aalen, Weather by CustomWeather, © 2014

Note: Actual official high and low records may vary slightly from our data, if they occured in-between our weather recording intervals... More about our weather records

Advertising

Aalen weather history for previous 24 hours

 ConditionsComfort  
Time TempWeatherWind HumidityBarometerVisibility
7:00 AM
Sep 20
59 °FOvercast.3 mph86%29.96 "Hg25 mi
6:00 AM60 °FLight rain. Overcast.5 mph87%29.98 "Hg19 mi
5:00 AM59 °FOvercast.3 mph90%29.98 "Hg1 mi
4:00 AM60 °FOvercast.2 mph84%29.97 "Hg28 mi
3:00 AM60 °FOvercast.3 mph88%29.98 "Hg15 mi
2:00 AM62 °FOvercast.2 mph86%29.98 "Hg28 mi
1:00 AM62 °FOvercast.3 mph86%29.98 "Hg25 mi
12:00 AM61 °FOvercast.2 mph84%29.99 "Hg43 mi
11:00 PM
Sep 19
61 °FOvercast.2 mph85%29.98 "Hg40 mi
10:00 PM61 °FPassing clouds.3 mph85%29.97 "Hg31 mi
9:00 PM61 °FOvercast.2 mph86%29.97 "Hg43 mi
8:00 PM60 °FOvercast.No wind85%29.97 "Hg43 mi
7:00 PM60 °FOvercast.No wind94%29.96 "Hg43 mi
6:00 PM59 °FThunderstorms. Overcast.3 mph95%29.96 "Hg43 mi
5:00 PM58 °FThundershowers. Overcast.8 mph90%29.98 "Hg2 mi
4:00 PM66 °FPartly sunny.1 mph86%29.91 "Hg37 mi
3:00 PM69 °FPartly sunny.2 mph71%29.90 "Hg47 mi
2:00 PM69 °FPassing clouds.2 mph69%29.90 "Hg47 mi
1:00 PM66 °FPartly sunny.2 mph79%29.93 "Hg47 mi
12:00 PM66 °FPartly sunny.2 mph76%29.93 "Hg47 mi
11:00 AM65 °FPartly sunny.2 mph78%29.93 "Hg47 mi
10:00 AM63 °FPartly sunny.2 mph76%29.94 "Hg47 mi
9:00 AM61 °FPartly sunny.2 mph80%29.94 "Hg47 mi
8:00 AM58 °FPartly sunny.2 mph87%29.94 "Hg37 mi
Weather by CustomWeather, © 2014

See weather overviewHow to use our weather pages